This demonstration page uses our WeatherBlox Daily Observations layout. Learn more.

38.80484, -77.04692

Hourly Observations for November 20, 2019

Temp ( °F °C ) Dew Point ( °F °C ) Humidity (%) Winds ( mph kmh ) Pressure ( in mb ) Visibility ( mi km ) Precip ( " mm )
12:52 am 00:52 Cloudy 50 10 39 3.9 66 66 NNW 8 13 29.88 1012 10 16.0934 0 0
1:52 am 01:52 Cloudy 50 10 37 2.8 61 61 NNW 8 13 29.89 1012 10 16.0934 0 0
2:52 am 02:52 Cloudy 48 8.9 37 2.8 66 66 NNW 9 15 29.91 1013 10 16.0934 0 0
3:52 am 03:52 Cloudy 48 8.9 37 2.8 66 66 NNE 13 20 29.93 1013 10 16.0934 0 0
4:43 am 04:43 Cloudy 48 8.9 38 3.3 68 68 NNW 6 9 29.94 1014 10 16.0934 0 0
4:52 am 04:52 Cloudy 47 8.3 38 3.3 71 71 NNW 6 9 29.94 1014 10 16.0934 0 0
5:00 am 05:00 Cloudy 47 8.3 38 3.3 71 71 NNW 9 15 29.95 1014 10 16.0934 0 0
5:52 am 05:52 Cloudy 47 8.3 37 2.8 69 69 NW 8 13 29.97 1015 10 16.0934 0 0
6:52 am 06:52 Cloudy 48 8.9 36 2.2 63 63 NW 8 13 29.99 1016 10 16.0934 0 0
7:52 am 07:52 Cloudy 48 8.9 37 2.8 66 66 NW 12 19 30.02 1017 10 16.0934 0 0
9:52 am 09:52 Cloudy 49 9.4 37 2.8 64 64 NW 12 19 30.06 1018 10 16.0934 0 0
10:52 am 10:52 Cloudy 51 10.6 38 3.3 61 61 NW 13 20 30.07 1018 10 16.0934 0 0
11:52 am 11:52 Mostly Cloudy 53 11.7 37 2.8 55 55 NNW 17 28 30.06 1018 10 16.0934 0 0
12:52 pm 12:52 Mostly Cloudy 54 12.2 37 2.8 53 53 NW 14 22 30.06 1018 10 16.0934 0 0
1:52 pm 13:52 Cloudy 52 11.1 35 1.7 53 53 NNW 16 26 30.07 1018 10 16.0934 0 0
2:52 pm 14:52 Mostly Cloudy 54 12.2 31 -0.6 42 42 NW 20 31 30.08 1019 10 16.0934 0 0
3:52 pm 15:52 Cloudy 52 11.1 33 0.6 49 49 NW 14 22 30.12 1020 10 16.0934 0 0
4:52 pm 16:52 Cloudy 51 10.6 33 0.6 50 50 NNW 16 26 30.14 1021 10 16.0934 0 0
5:52 pm 17:52 Mostly Cloudy 51 10.6 33 0.6 50 50 NW 12 19 30.15 1021 10 16.0934 0 0
6:52 pm 18:52 Cloudy 51 10.6 33 0.6 50 50 NW 10 17 30.17 1022 10 16.0934 0 0
7:52 pm 19:52 Cloudy 50 10 33 0.6 52 52 NW 10 17 30.19 1023 10 16.0934 0 0
8:52 pm 20:52 Mostly Cloudy 49 9.4 33 0.6 55 55 NNW 14 22 30.21 1023 10 16.0934 0 0
9:52 pm 21:52 Mostly Cloudy 48 8.9 32 0 54 54 NW 10 17 30.22 1023 10 16.0934 0 0
10:52 pm 22:52 Partly Cloudy 46 7.8 32 0 58 58 NW 10 17 30.22 1023 10 16.0934 0 0
11:52 pm 23:52 Mostly Clear 47 8.3 32 0 56 56 NW 10 17 30.23 1024 10 16.0934 0 0

Powered by AerisWeather